This demonstration page uses our WeatherBlox Daily Observations layout. Learn more.

Left ArrowRight Arrow

Hourly Observations for May 12, 2015

Temp ( °F °C ) Dew Point ( °F °C ) Humidity (%) Winds ( mph kmh ) Pressure ( in mb ) Visibility ( mi km ) Precip ( " mm )
12:15 am 00:15 Clear 72 22 70 21 94 94 SSW 5 7 29.97 1015 10 16 N/A
12:35 am 00:35 Partly Cloudy 70 21 68 20 94 94 WSW 3 6 30.00 1016 10 16 N/A
12:55 am 00:55 Mostly Cloudy 72 22 70 21 94 94 N N/A 29.97 1015 10 16 N/A
1:15 am 01:15 Mostly Cloudy 72 22 70 21 94 94 N N/A 29.97 1015 10 16 N/A
1:35 am 01:35 Mostly Cloudy with Light Rain 70 21 70 21 100 100 NNW 3 6 29.97 1015 10 16 N/A
1:55 am 01:55 Mostly Cloudy with Rain 70 21 70 21 100 100 N N/A 29.94 1014 10 16 N/A
2:15 am 02:15 Mostly Cloudy 70 21 70 21 100 100 N N/A 29.94 1014 10 16 N/A
2:35 am 02:35 Partly Cloudy 70 21 70 21 100 100 S 8 13 29.94 1014 10 16 N/A
2:55 am 02:55 Clear 68 20 68 20 100 100 SW 5 7 29.94 1014 10 16 N/A
3:15 am 03:15 Partly Cloudy 68 20 68 20 100 100 SSW 3 6 29.94 1014 10 16 N/A
3:35 am 03:35 Partly Cloudy 68 20 68 20 100 100 WSW 3 6 29.94 1014 10 16 N/A
3:55 am 03:55 Partly Cloudy 68 20 68 20 100 100 WSW 3 6 29.94 1014 10 16 N/A
4:15 am 04:15 Partly Cloudy 68 20 68 20 100 100 N N/A 29.94 1014 10 16 N/A
4:35 am 04:35 Clear 68 20 68 20 100 100 WSW 3 6 29.94 1014 10 16 N/A
4:55 am 04:55 Clear 68 20 68 20 100 100 SW 6 9 29.94 1014 10 16 N/A
5:15 am 05:15 Clear 68 20 68 20 100 100 WSW 6 9 29.94 1014 10 16 N/A
5:35 am 05:35 Clear 68 20 68 20 100 100 WSW 3 6 29.94 1014 10 16 N/A
5:55 am 05:55 Clear 68 20 68 20 100 100 SW 7 11 29.94 1014 10 16 N/A
6:15 am 06:15 Sunny 70 21 68 20 94 94 SSW 7 11 29.94 1014 10 16 N/A
6:35 am 06:35 Sunny 68 20 68 20 100 100 SSW 6 9 29.94 1014 10 16 N/A
6:55 am 06:55 Sunny 70 21 68 20 94 94 SSW 3 6 29.97 1015 10 16 N/A
7:15 am 07:15 Sunny 70 21 68 20 94 94 N N/A 29.97 1015 10 16 N/A
7:35 am 07:35 Sunny 70 21 68 20 94 94 S 3 6 29.97 1015 10 16 N/A
7:55 am 07:55 Sunny 72 22 68 20 88 88 N N/A 29.97 1015 10 16 N/A
8:15 am 08:15 Sunny 73 23 68 20 83 83 SSW 3 6 29.97 1015 10 16 N/A
8:35 am 08:35 Sunny 77 25 68 20 74 74 W 6 9 29.97 1015 10 16 N/A
8:55 am 08:55 Sunny 79 26 66 19 65 65 WSW 5 7 29.97 1015 10 16 N/A
9:15 am 09:15 Sunny 79 26 68 20 70 70 WSW 7 11 29.97 1015 10 16 N/A
9:35 am 09:35 Sunny 77 25 66 19 69 69 W 6 9 29.97 1015 10 16 N/A
9:55 am 09:55 Partly Cloudy 77 25 68 20 74 74 W 6 9 29.97 1015 10 16 N/A
10:15 am 10:15 Mostly Cloudy 77 25 68 20 74 74 W 7 11 29.97 1015 10 16 N/A
10:35 am 10:35 Mostly Cloudy 77 25 68 20 74 74 W 8 13 29.97 1015 10 16 N/A
10:55 am 10:55 Mostly Cloudy 77 25 66 19 69 69 W 6 9 29.97 1015 10 16 N/A
11:15 am 11:15 Partly Cloudy 81 27 66 19 62 62 WSW 5 7 29.97 1015 10 16 N/A
11:35 am 11:35 Sunny 81 27 64 18 58 58 WSW 7 11 29.97 1015 10 16 N/A
11:55 am 11:55 Sunny 81 27 64 18 58 58 W 9 15 29.97 1015 10 16 N/A
12:15 pm 12:15 Sunny 82 28 63 17 51 51 WSW 12 19 29.97 1015 10 16 N/A
12:35 pm 12:35 Sunny 82 28 63 17 51 51 WSW 10 17 29.94 1014 10 16 N/A
12:55 pm 12:55 Sunny 82 28 61 16 48 48 W 13 20 29.94 1014 10 16 N/A
1:15 pm 13:15 Sunny 82 28 61 16 48 48 W 10 17 29.94 1014 10 16 N/A
1:35 pm 13:35 Sunny 84 29 61 16 45 45 WSW 12 19 29.94 1014 10 16 N/A
1:55 pm 13:55 Partly Cloudy 84 29 61 16 45 45 WSW 8 13 29.94 1014 10 16 N/A
2:15 pm 14:15 Partly Cloudy 86 30 61 16 43 43 WSW 13 20 29.88 1012 10 16 N/A
2:35 pm 14:35 Sunny 86 30 61 16 43 43 SW 13 20 29.88 1012 10 16 N/A
2:55 pm 14:55 Sunny 86 30 63 17 46 46 WSW 12 19 29.88 1012 10 16 N/A
3:15 pm 15:15 Partly Cloudy 86 30 63 17 46 46 SW 8 13 29.85 1011 10 16 N/A
3:35 pm 15:35 Mostly Cloudy 84 29 61 16 45 45 W 8 13 29.88 1012 10 16 N/A
3:55 pm 15:55 Partly Cloudy 86 30 61 16 43 43 WSW 10 17 29.85 1011 10 16 N/A
4:15 pm 16:15 Mostly Cloudy 86 30 59 15 40 40 WSW 6 9 29.85 1011 10 16 N/A
4:35 pm 16:35 Partly Cloudy 88 31 55 13 33 33 W 13 20 29.85 1011 10 16 N/A
4:55 pm 16:55 Sunny 86 30 54 12 33 33 WNW 13 20 29.83 1010 10 16 N/A
5:15 pm 17:15 Partly Cloudy 86 30 54 12 33 33 WNW 17 28 29.83 1010 10 16 N/A
5:35 pm 17:35 Partly Cloudy 86 30 54 12 33 33 W 17 28 29.85 1011 10 16 N/A
5:55 pm 17:55 Partly Cloudy 86 30 52 11 31 31 W 14 22 29.85 1011 10 16 N/A
6:15 pm 18:15 Partly Cloudy 86 30 50 10 29 29 W 15 24 29.85 1011 10 16 N/A
6:35 pm 18:35 Mostly Cloudy 84 29 52 11 33 33 WNW 12 19 29.88 1012 10 16 N/A
6:55 pm 18:55 Partly Cloudy 82 28 52 11 35 35 WNW 14 22 29.88 1012 10 16 N/A
7:15 pm 19:15 Sunny 82 28 50 10 32 32 WNW 13 20 29.88 1012 10 16 N/A
7:35 pm 19:35 Sunny 81 27 50 10 34 34 WNW 18 30 29.88 1012 10 16 N/A
7:55 pm 19:55 Sunny 81 27 50 10 34 34 WNW 16 26 29.91 1013 10 16 N/A
8:15 pm 20:15 Clear 79 26 50 10 37 37 NW 15 24 29.91 1013 10 16 N/A
8:35 pm 20:35 Clear 77 25 50 10 39 39 NW 17 28 29.94 1014 10 16 N/A
8:55 pm 20:55 Clear 77 25 50 10 39 39 NW 15 24 29.94 1014 10 16 N/A
9:15 pm 21:15 Clear 77 25 50 10 39 39 NW 20 31 29.94 1014 10 16 N/A
9:35 pm 21:35 Clear 77 25 46 8 34 34 NW 17 28 29.97 1015 10 16 N/A
9:55 pm 21:55 Clear 73 23 46 8 38 38 NW 17 28 29.97 1015 10 16 N/A
10:15 pm 22:15 Clear 73 23 46 8 38 38 NW 18 30 30.00 1016 10 16 N/A
10:35 pm 22:35 Clear 73 23 46 8 38 38 WNW 13 20 30.00 1016 10 16 N/A
10:55 pm 22:55 Clear 72 22 45 7 38 38 NW 12 19 30.00 1016 10 16 N/A
11:15 pm 23:15 Clear 72 22 46 8 41 41 NNW 18 30 30.00 1016 10 16 N/A
11:35 pm 23:35 Clear 70 21 48 9 46 46 NNW 14 22 30.03 1017 10 16 N/A
11:55 pm 23:55 Clear 70 21 46 8 43 43 NNW 14 22 30.03 1017 10 16 N/A

Powered by AerisWeather